Year,Month,Day,Hour,Minute,Value (Times are PST for temperature in C)
2017,05,21,00,00,14.80
2017,05,21,00,01,14.80
2017,05,21,00,02,14.80
2017,05,21,00,03,14.80
2017,05,21,00,04,14.80
2017,05,21,00,05,14.90
2017,05,21,00,06,14.90
2017,05,21,00,07,14.90
2017,05,21,00,08,14.90
2017,05,21,00,09,14.90
2017,05,21,00,10,15.00
2017,05,21,00,11,15.00
2017,05,21,00,12,15.00
2017,05,21,00,13,15.10
2017,05,21,00,14,15.10
2017,05,21,00,15,15.10
2017,05,21,00,16,15.10
2017,05,21,00,17,15.10
2017,05,21,00,18,15.10
2017,05,21,00,19,15.20
2017,05,21,00,20,15.20
2017,05,21,00,21,15.20
2017,05,21,00,22,15.20
2017,05,21,00,23,15.20
2017,05,21,00,24,15.20
2017,05,21,00,25,15.20
2017,05,21,00,26,15.20
2017,05,21,00,27,15.30
2017,05,21,00,28,15.30
2017,05,21,00,29,15.30
2017,05,21,00,30,15.30
2017,05,21,00,31,15.30
2017,05,21,00,32,15.30
2017,05,21,00,33,15.30
2017,05,21,00,34,15.30
2017,05,21,00,35,15.30
2017,05,21,00,36,15.30
2017,05,21,00,37,15.30
2017,05,21,00,38,15.40
2017,05,21,00,39,15.40
2017,05,21,00,40,15.40
2017,05,21,00,41,15.40
2017,05,21,00,42,15.50
2017,05,21,00,43,15.50
2017,05,21,00,44,15.50
2017,05,21,00,45,15.60
2017,05,21,00,46,15.60
2017,05,21,00,47,15.60
2017,05,21,00,48,15.60
2017,05,21,00,49,15.60
2017,05,21,00,50,15.60
2017,05,21,00,51,15.60
2017,05,21,00,52,15.60
2017,05,21,00,53,15.60
2017,05,21,00,54,15.60
2017,05,21,00,55,15.50
2017,05,21,00,56,15.60
2017,05,21,00,57,15.50
2017,05,21,00,58,15.50
2017,05,21,00,59,15.50
2017,05,21,01,00,15.50
2017,05,21,01,01,15.50
2017,05,21,01,02,15.40
2017,05,21,01,03,15.40
2017,05,21,01,04,15.40
2017,05,21,01,05,15.40
2017,05,21,01,06,15.40
2017,05,21,01,07,15.40
2017,05,21,01,08,15.50
2017,05,21,01,09,15.50
2017,05,21,01,10,15.50
2017,05,21,01,11,15.50
2017,05,21,01,12,15.50
2017,05,21,01,13,15.50
2017,05,21,01,14,15.60
2017,05,21,01,15,15.60
2017,05,21,01,16,15.60
2017,05,21,01,17,15.60
2017,05,21,01,18,15.60
2017,05,21,01,19,15.70
2017,05,21,01,20,15.70
2017,05,21,01,21,15.70
2017,05,21,01,22,15.70
2017,05,21,01,23,15.70
2017,05,21,01,24,15.70
2017,05,21,01,25,15.70
2017,05,21,01,26,15.70
2017,05,21,01,27,15.70
2017,05,21,01,28,15.70
2017,05,21,01,29,15.70
2017,05,21,01,30,15.70
2017,05,21,01,31,15.70
2017,05,21,01,32,15.70
2017,05,21,01,33,15.70
2017,05,21,01,34,15.70
2017,05,21,01,35,15.70
2017,05,21,01,36,15.70
2017,05,21,01,37,15.70
2017,05,21,01,38,15.70
2017,05,21,01,39,15.70
2017,05,21,01,40,15.70
2017,05,21,01,41,15.70
2017,05,21,01,42,15.70
2017,05,21,01,43,15.70
2017,05,21,01,44,15.70
2017,05,21,01,45,15.70
2017,05,21,01,46,15.60
2017,05,21,01,47,15.60
2017,05,21,01,48,15.60
2017,05,21,01,49,15.60
2017,05,21,01,50,15.60
2017,05,21,01,51,15.60
2017,05,21,01,52,15.60
2017,05,21,01,53,15.60
2017,05,21,01,54,15.60
2017,05,21,01,55,15.60
2017,05,21,01,56,15.60
2017,05,21,01,57,15.60
2017,05,21,01,58,15.60
2017,05,21,01,59,15.60
2017,05,21,02,00,15.50
2017,05,21,02,01,15.50
2017,05,21,02,02,15.50
2017,05,21,02,03,15.50
2017,05,21,02,04,15.50
2017,05,21,02,05,15.50
2017,05,21,02,06,15.50
2017,05,21,02,07,15.40
2017,05,21,02,08,15.40
2017,05,21,02,09,15.40
2017,05,21,02,10,15.40
2017,05,21,02,11,15.50
2017,05,21,02,12,15.50
2017,05,21,02,13,15.50
2017,05,21,02,14,15.50
2017,05,21,02,15,15.50
2017,05,21,02,16,15.50
2017,05,21,02,17,15.50
2017,05,21,02,18,15.50
2017,05,21,02,19,15.50
2017,05,21,02,20,15.50
2017,05,21,02,21,15.50
2017,05,21,02,22,15.50
2017,05,21,02,23,15.50
2017,05,21,02,24,15.50
2017,05,21,02,25,15.50
2017,05,21,02,26,15.50
2017,05,21,02,27,15.50
2017,05,21,02,28,15.40
2017,05,21,02,29,15.40
2017,05,21,02,30,15.40
2017,05,21,02,31,15.40
2017,05,21,02,32,15.30
2017,05,21,02,33,15.30
2017,05,21,02,34,15.30
2017,05,21,02,35,15.30
2017,05,21,02,36,15.20
2017,05,21,02,37,15.20
2017,05,21,02,38,15.20
2017,05,21,02,39,15.10
2017,05,21,02,40,15.10
2017,05,21,02,41,15.10
2017,05,21,02,42,15.00
2017,05,21,02,43,15.00
2017,05,21,02,44,15.00
2017,05,21,02,45,14.90
2017,05,21,02,46,14.90
2017,05,21,02,47,14.90
2017,05,21,02,48,14.80
2017,05,21,02,49,14.80
2017,05,21,02,50,14.80
2017,05,21,02,51,14.70
2017,05,21,02,52,14.70
2017,05,21,02,53,14.60
2017,05,21,02,54,14.60
2017,05,21,02,55,14.50
2017,05,21,02,56,14.50
2017,05,21,02,57,14.40
2017,05,21,02,58,14.40
2017,05,21,02,59,14.40
2017,05,21,03,00,14.30
2017,05,21,03,01,14.30
2017,05,21,03,02,14.30
2017,05,21,03,03,14.20
2017,05,21,03,04,14.20
2017,05,21,03,05,14.20
2017,05,21,03,06,14.20
2017,05,21,03,07,14.10
2017,05,21,03,08,14.10
2017,05,21,03,09,14.10
2017,05,21,03,10,14.10
2017,05,21,03,11,14.10
2017,05,21,03,12,14.10
2017,05,21,03,13,14.10
2017,05,21,03,14,14.00
2017,05,21,03,15,14.00
2017,05,21,03,16,14.10
2017,05,21,03,17,14.00
2017,05,21,03,18,14.10
2017,05,21,03,19,14.00
2017,05,21,03,20,14.00
2017,05,21,03,21,14.00
2017,05,21,03,22,14.00
2017,05,21,03,23,14.00
2017,05,21,03,24,14.00
2017,05,21,03,25,14.00
2017,05,21,03,26,14.10
2017,05,21,03,27,14.10
2017,05,21,03,28,14.10
2017,05,21,03,29,14.10
2017,05,21,03,30,14.10
2017,05,21,03,31,14.10
2017,05,21,03,32,14.10
2017,05,21,03,33,14.10
2017,05,21,03,34,14.10
2017,05,21,03,35,14.10
2017,05,21,03,36,14.20
2017,05,21,03,37,14.20
2017,05,21,03,38,14.20
2017,05,21,03,39,14.20
2017,05,21,03,40,14.20
2017,05,21,03,41,14.20
2017,05,21,03,42,14.20
2017,05,21,03,43,14.20
2017,05,21,03,44,14.20
2017,05,21,03,45,14.20
2017,05,21,03,46,14.20
2017,05,21,03,47,14.20
2017,05,21,03,48,14.10
2017,05,21,03,49,14.10
2017,05,21,03,50,14.10
2017,05,21,03,51,14.10
2017,05,21,03,52,14.10
2017,05,21,03,53,14.00
2017,05,21,03,54,14.00
2017,05,21,03,55,14.00
2017,05,21,03,56,13.90
2017,05,21,03,57,13.90
2017,05,21,03,58,13.90
2017,05,21,03,59,13.90
2017,05,21,04,00,13.90
2017,05,21,04,01,13.80
2017,05,21,04,02,13.80
2017,05,21,04,03,13.80
2017,05,21,04,04,13.70
2017,05,21,04,05,13.70
2017,05,21,04,06,13.70
2017,05,21,04,07,13.70
2017,05,21,04,08,13.60
2017,05,21,04,09,13.60
2017,05,21,04,10,13.60
2017,05,21,04,11,13.60
2017,05,21,04,12,13.50
2017,05,21,04,13,13.50
2017,05,21,04,14,13.40
2017,05,21,04,15,13.40
2017,05,21,04,16,13.40
2017,05,21,04,17,13.40
2017,05,21,04,18,13.30
2017,05,21,04,19,13.30
2017,05,21,04,20,13.30
2017,05,21,04,21,13.30
2017,05,21,04,22,13.20
2017,05,21,04,23,13.20
2017,05,21,04,24,13.20
2017,05,21,04,25,13.20
2017,05,21,04,26,13.10
2017,05,21,04,27,13.10
2017,05,21,04,28,13.10
2017,05,21,04,29,13.10
2017,05,21,04,30,13.00
2017,05,21,04,31,13.00
2017,05,21,04,32,13.00
2017,05,21,04,33,12.90
2017,05,21,04,34,12.90
2017,05,21,04,35,12.90
2017,05,21,04,36,12.80
2017,05,21,04,37,12.80
2017,05,21,04,38,12.80
2017,05,21,04,39,12.80
2017,05,21,04,40,12.70
2017,05,21,04,41,12.70
2017,05,21,04,42,12.70
2017,05,21,04,43,12.70
2017,05,21,04,44,12.70
2017,05,21,04,45,12.60
2017,05,21,04,46,12.60
2017,05,21,04,47,12.60
2017,05,21,04,48,12.60
2017,05,21,04,49,12.60
2017,05,21,04,50,12.60
2017,05,21,04,51,12.50
2017,05,21,04,52,12.50
2017,05,21,04,53,12.50
2017,05,21,04,54,12.40
2017,05,21,04,55,12.40
2017,05,21,04,56,12.40
2017,05,21,04,57,12.40
2017,05,21,04,58,12.40
2017,05,21,04,59,12.40
2017,05,21,05,00,12.40
2017,05,21,05,01,12.40
2017,05,21,05,02,12.30
2017,05,21,05,03,12.30
2017,05,21,05,04,12.30
2017,05,21,05,05,12.30
2017,05,21,05,06,12.30
2017,05,21,05,07,12.30
2017,05,21,05,08,12.30
2017,05,21,05,09,12.30
2017,05,21,05,10,12.20
2017,05,21,05,11,12.20
2017,05,21,05,12,12.20
2017,05,21,05,13,12.20
2017,05,21,05,14,12.20
2017,05,21,05,15,12.10
2017,05,21,05,16,12.10
2017,05,21,05,17,12.10
2017,05,21,05,18,12.10
2017,05,21,05,19,12.10
2017,05,21,05,20,12.10
2017,05,21,05,21,12.00
2017,05,21,05,22,12.00
2017,05,21,05,23,12.00
2017,05,21,05,24,12.00
2017,05,21,05,25,12.00
2017,05,21,05,26,12.00
2017,05,21,05,27,11.90
2017,05,21,05,28,11.90
2017,05,21,05,29,11.90
2017,05,21,05,30,11.90
2017,05,21,05,31,11.90
2017,05,21,05,32,11.80
2017,05,21,05,33,11.80
2017,05,21,05,34,11.80
2017,05,21,05,35,11.80
2017,05,21,05,36,11.80
2017,05,21,05,37,11.80
2017,05,21,05,38,11.80
2017,05,21,05,39,11.80
2017,05,21,05,40,11.80
2017,05,21,05,41,11.80
2017,05,21,05,42,11.70
2017,05,21,05,43,11.70
2017,05,21,05,44,11.70
2017,05,21,05,45,11.70
2017,05,21,05,46,11.70
2017,05,21,05,47,11.70
2017,05,21,05,48,11.70
2017,05,21,05,49,11.70
2017,05,21,05,50,11.70
2017,05,21,05,51,11.70
2017,05,21,05,52,11.70
2017,05,21,05,53,11.70
2017,05,21,05,54,11.60
2017,05,21,05,55,11.60
2017,05,21,05,56,11.60
2017,05,21,05,57,11.60
2017,05,21,05,58,11.60
2017,05,21,05,59,11.60
2017,05,21,06,00,11.60
2017,05,21,06,01,11.60
2017,05,21,06,02,11.60
2017,05,21,06,03,11.60
2017,05,21,06,04,11.60
2017,05,21,06,05,11.60
2017,05,21,06,06,11.60
2017,05,21,06,07,11.60
2017,05,21,06,08,11.60
2017,05,21,06,09,11.60
2017,05,21,06,10,11.60
2017,05,21,06,11,11.60
2017,05,21,06,12,11.60
2017,05,21,06,13,11.60
2017,05,21,06,14,11.60
2017,05,21,06,15,11.60
2017,05,21,06,16,11.60
2017,05,21,06,17,11.60
2017,05,21,06,18,11.60
2017,05,21,06,19,11.60
2017,05,21,06,20,11.60
2017,05,21,06,21,11.60
2017,05,21,06,22,11.60
2017,05,21,06,23,11.60
2017,05,21,06,24,11.60
2017,05,21,06,25,11.60
2017,05,21,06,26,11.60
2017,05,21,06,27,11.60
2017,05,21,06,28,11.60
2017,05,21,06,29,11.60
2017,05,21,06,30,11.60
2017,05,21,06,31,11.60
2017,05,21,06,32,11.60
2017,05,21,06,33,11.60
2017,05,21,06,34,11.60
2017,05,21,06,35,11.60
2017,05,21,06,36,11.60
2017,05,21,06,37,11.60
2017,05,21,06,38,11.60
2017,05,21,06,39,11.60
2017,05,21,06,40,11.60
2017,05,21,06,41,11.60
2017,05,21,06,42,11.60
2017,05,21,06,43,11.60
2017,05,21,06,44,11.60
2017,05,21,06,45,11.60
2017,05,21,06,46,11.60
2017,05,21,06,47,11.70
2017,05,21,06,48,11.70
2017,05,21,06,49,11.70
2017,05,21,06,50,11.70
2017,05,21,06,51,11.70
2017,05,21,06,52,11.70
2017,05,21,06,53,11.70
2017,05,21,06,54,11.70
2017,05,21,06,55,11.70
2017,05,21,06,56,11.70
2017,05,21,06,57,11.80
2017,05,21,06,58,11.80
2017,05,21,06,59,11.80
2017,05,21,07,00,11.80
2017,05,21,07,01,11.80
2017,05,21,07,02,11.80
2017,05,21,07,03,11.80
2017,05,21,07,04,11.80
2017,05,21,07,05,11.80
2017,05,21,07,06,11.80
2017,05,21,07,07,11.90
2017,05,21,07,08,11.90
2017,05,21,07,09,11.90
2017,05,21,07,10,11.90
2017,05,21,07,11,11.90
2017,05,21,07,12,12.00
2017,05,21,07,13,12.00
2017,05,21,07,14,12.00
2017,05,21,07,15,12.10
2017,05,21,07,16,12.10
2017,05,21,07,17,12.10
2017,05,21,07,18,12.20
2017,05,21,07,19,12.20
2017,05,21,07,20,12.20
2017,05,21,07,21,12.30
2017,05,21,07,22,12.30
2017,05,21,07,23,12.30
2017,05,21,07,24,12.40
2017,05,21,07,25,12.40
2017,05,21,07,26,12.50
2017,05,21,07,27,12.50
2017,05,21,07,28,12.60
2017,05,21,07,29,12.60
2017,05,21,07,30,12.70
2017,05,21,07,31,12.70
2017,05,21,07,32,12.70
2017,05,21,07,33,12.80
2017,05,21,07,34,12.80
2017,05,21,07,35,12.80
2017,05,21,07,36,12.90
2017,05,21,07,37,12.90
2017,05,21,07,38,13.00
2017,05,21,07,39,13.00
2017,05,21,07,40,13.00
2017,05,21,07,41,13.10
2017,05,21,07,42,13.10
2017,05,21,07,43,13.10
2017,05,21,07,44,13.20
2017,05,21,07,45,13.20
2017,05,21,07,46,13.30
2017,05,21,07,47,13.30
2017,05,21,07,48,13.40
2017,05,21,07,49,13.40
2017,05,21,07,50,13.40
2017,05,21,07,51,13.50
2017,05,21,07,52,13.50
2017,05,21,07,53,13.60
2017,05,21,07,54,13.70
2017,05,21,07,55,13.70
2017,05,21,07,56,13.70
2017,05,21,07,57,13.80
2017,05,21,07,58,13.80
2017,05,21,07,59,13.90
2017,05,21,08,00,13.90
2017,05,21,08,01,14.00
2017,05,21,08,02,14.10
2017,05,21,08,03,14.10
2017,05,21,08,04,14.20
2017,05,21,08,05,14.20
2017,05,21,08,06,14.20
2017,05,21,08,07,14.30
2017,05,21,08,08,14.30
2017,05,21,08,09,14.30
2017,05,21,08,10,14.40
2017,05,21,08,11,14.40
2017,05,21,08,12,14.40
2017,05,21,08,13,14.40
2017,05,21,08,14,14.50
2017,05,21,08,15,14.50
2017,05,21,08,16,14.60
2017,05,21,08,17,14.60
2017,05,21,08,18,14.60
2017,05,21,08,19,14.60
2017,05,21,08,20,14.60
2017,05,21,08,21,14.60
2017,05,21,08,22,14.70
2017,05,21,08,23,14.70
2017,05,21,08,24,14.70
2017,05,21,08,25,14.70
2017,05,21,08,26,14.70
2017,05,21,08,27,14.70
2017,05,21,08,28,14.70
2017,05,21,08,29,14.70
2017,05,21,08,30,14.80
2017,05,21,08,31,14.80
2017,05,21,08,32,14.80
2017,05,21,08,33,14.80
2017,05,21,08,34,14.90
2017,05,21,08,35,14.90
2017,05,21,08,36,14.90
2017,05,21,08,37,15.00
2017,05,21,08,38,15.00
2017,05,21,08,39,15.10
2017,05,21,08,40,15.10
2017,05,21,08,41,15.10
2017,05,21,08,42,15.20
2017,05,21,08,43,15.20
2017,05,21,08,44,15.20
2017,05,21,08,45,15.20
2017,05,21,08,46,15.30
2017,05,21,08,47,15.30
2017,05,21,08,48,15.30
2017,05,21,08,49,15.40
2017,05,21,08,50,15.40
2017,05,21,08,51,15.50
2017,05,21,08,52,15.50
2017,05,21,08,53,15.60
2017,05,21,08,54,15.60
2017,05,21,08,55,15.70
2017,05,21,08,56,15.70
2017,05,21,08,57,15.80
2017,05,21,08,58,15.80
2017,05,21,08,59,15.90
2017,05,21,09,00,16.00
2017,05,21,09,01,16.00
2017,05,21,09,02,16.10
2017,05,21,09,03,16.10
2017,05,21,09,04,16.20
2017,05,21,09,05,16.20
2017,05,21,09,06,16.30
2017,05,21,09,07,16.30
2017,05,21,09,08,16.40
2017,05,21,09,09,16.50
2017,05,21,09,10,16.50
2017,05,21,09,11,16.60
2017,05,21,09,12,16.70
2017,05,21,09,13,16.70
2017,05,21,09,14,16.80
2017,05,21,09,15,16.80
2017,05,21,09,16,16.90
2017,05,21,09,17,16.90
2017,05,21,09,18,17.00
2017,05,21,09,19,17.10
2017,05,21,09,20,17.10
2017,05,21,09,21,17.20
2017,05,21,09,22,17.30
2017,05,21,09,23,17.30
2017,05,21,09,24,17.40
2017,05,21,09,25,17.40
2017,05,21,09,26,17.50
2017,05,21,09,27,17.60
2017,05,21,09,28,17.60
2017,05,21,09,29,17.70
2017,05,21,09,30,17.70
2017,05,21,09,31,17.70
2017,05,21,09,32,17.80
2017,05,21,09,33,17.80
2017,05,21,09,34,17.80
2017,05,21,09,35,17.80
2017,05,21,09,36,17.90
2017,05,21,09,37,17.90
2017,05,21,09,38,18.00
2017,05,21,09,39,18.00
2017,05,21,09,40,18.10
2017,05,21,09,41,18.10
2017,05,21,09,42,18.10
2017,05,21,09,43,18.10
2017,05,21,09,44,18.20
2017,05,21,09,45,18.20
2017,05,21,09,46,18.20
2017,05,21,09,47,18.20
2017,05,21,09,48,18.20
2017,05,21,09,49,18.20
2017,05,21,09,50,18.20
2017,05,21,09,51,18.20
2017,05,21,09,52,18.20
2017,05,21,09,53,18.30
2017,05,21,09,54,18.30
2017,05,21,09,55,18.40
2017,05,21,09,56,18.50
2017,05,21,09,57,18.50
2017,05,21,09,58,18.50
2017,05,21,09,59,18.60
2017,05,21,10,00,18.60
2017,05,21,10,01,18.60
2017,05,21,10,02,18.60
2017,05,21,10,03,18.70
2017,05,21,10,04,18.70
2017,05,21,10,05,18.70
2017,05,21,10,06,18.80
2017,05,21,10,07,18.80
2017,05,21,10,08,18.90
2017,05,21,10,09,19.00
2017,05,21,10,10,19.00
2017,05,21,10,11,19.10
2017,05,21,10,12,19.10
2017,05,21,10,13,19.10
2017,05,21,10,14,19.20
2017,05,21,10,15,19.20
2017,05,21,10,16,19.20
2017,05,21,10,17,19.20
2017,05,21,10,18,19.20
2017,05,21,10,19,19.30
2017,05,21,10,20,19.30
2017,05,21,10,21,19.30
2017,05,21,10,22,19.40
2017,05,21,10,23,19.40
2017,05,21,10,24,19.40
2017,05,21,10,25,19.50
2017,05,21,10,26,19.50
2017,05,21,10,27,19.60
2017,05,21,10,28,19.60
2017,05,21,10,29,19.60
2017,05,21,10,30,19.60
2017,05,21,10,31,19.70
2017,05,21,10,32,19.70
2017,05,21,10,33,19.70
2017,05,21,10,34,19.70
2017,05,21,10,35,19.70
2017,05,21,10,36,19.70
2017,05,21,10,37,19.70
2017,05,21,10,38,19.70
2017,05,21,10,39,19.60
2017,05,21,10,40,19.60
2017,05,21,10,41,19.60
2017,05,21,10,42,19.60
2017,05,21,10,43,19.50
2017,05,21,10,44,19.50
2017,05,21,10,45,19.50
2017,05,21,10,46,19.50
2017,05,21,10,47,19.50
2017,05,21,10,48,19.50
2017,05,21,10,49,19.60
2017,05,21,10,50,19.60
2017,05,21,10,51,19.70
2017,05,21,10,52,19.70
2017,05,21,10,53,19.80
2017,05,21,10,54,19.80
2017,05,21,10,55,19.90
2017,05,21,10,56,19.90
2017,05,21,10,57,20.00
2017,05,21,10,58,20.00
2017,05,21,10,59,20.10
2017,05,21,11,00,20.10
2017,05,21,11,01,20.10
2017,05,21,11,02,20.10
2017,05,21,11,03,20.10
2017,05,21,11,04,20.10
2017,05,21,11,05,20.10
2017,05,21,11,06,20.00
2017,05,21,11,07,20.00
2017,05,21,11,08,20.00
2017,05,21,11,09,20.00
2017,05,21,11,10,20.10
2017,05,21,11,11,20.10
2017,05,21,11,12,20.10
2017,05,21,11,13,20.20
2017,05,21,11,14,20.20
2017,05,21,11,15,20.20
2017,05,21,11,16,20.20
2017,05,21,11,17,20.20
2017,05,21,11,18,20.30
2017,05,21,11,19,20.30
2017,05,21,11,20,20.30
2017,05,21,11,21,20.40
2017,05,21,11,22,20.40
2017,05,21,11,23,20.50
2017,05,21,11,24,20.60
2017,05,21,11,25,20.60
2017,05,21,11,26,20.70
2017,05,21,11,27,20.70
2017,05,21,11,28,20.80
2017,05,21,11,29,20.80
2017,05,21,11,30,20.80
2017,05,21,11,31,20.80
2017,05,21,11,32,20.70
2017,05,21,11,33,20.60
2017,05,21,11,34,20.60
2017,05,21,11,35,20.60
2017,05,21,11,36,20.50
2017,05,21,11,37,20.50
2017,05,21,11,38,20.40
2017,05,21,11,39,20.30
2017,05,21,11,40,20.30
2017,05,21,11,41,20.20
2017,05,21,11,42,20.10
2017,05,21,11,43,20.10
2017,05,21,11,44,20.00
2017,05,21,11,45,19.90
2017,05,21,11,46,19.90
2017,05,21,11,47,19.80
2017,05,21,11,48,19.80
2017,05,21,11,49,19.80
2017,05,21,11,50,19.80
2017,05,21,11,51,19.90
2017,05,21,11,52,19.90
2017,05,21,11,53,19.90
2017,05,21,11,54,20.00
2017,05,21,11,55,20.00
2017,05,21,11,56,20.10
2017,05,21,11,57,20.10
2017,05,21,11,58,20.10
2017,05,21,11,59,20.10
2017,05,21,12,00,20.10
2017,05,21,12,01,20.10
2017,05,21,12,02,20.10
2017,05,21,12,03,20.10
2017,05,21,12,04,20.10
2017,05,21,12,05,20.10
2017,05,21,12,06,20.10
2017,05,21,12,07,20.10
2017,05,21,12,08,20.10
2017,05,21,12,09,20.10
2017,05,21,12,10,20.10
2017,05,21,12,11,20.20
2017,05,21,12,12,20.20
2017,05,21,12,13,20.30
2017,05,21,12,14,20.30
2017,05,21,12,15,20.30
2017,05,21,12,16,20.40
2017,05,21,12,17,20.50
2017,05,21,12,18,20.50
2017,05,21,12,19,20.40
2017,05,21,12,20,20.40
2017,05,21,12,21,20.40
2017,05,21,12,22,20.40
2017,05,21,12,23,20.40
2017,05,21,12,24,20.40
2017,05,21,12,25,20.40
2017,05,21,12,26,20.50
2017,05,21,12,27,20.50
2017,05,21,12,28,20.60
2017,05,21,12,29,20.60
2017,05,21,12,30,20.70
2017,05,21,12,31,20.80
2017,05,21,12,32,20.90
2017,05,21,12,33,20.90
2017,05,21,12,34,21.00
2017,05,21,12,35,20.90
2017,05,21,12,36,20.90
2017,05,21,12,37,20.90
2017,05,21,12,38,21.00
2017,05,21,12,39,21.00
2017,05,21,12,40,21.00
2017,05,21,12,41,21.00
2017,05,21,12,42,21.00
2017,05,21,12,43,21.00
2017,05,21,12,44,21.00
2017,05,21,12,45,21.00
2017,05,21,12,46,21.00
2017,05,21,12,47,21.00
2017,05,21,12,48,20.90
2017,05,21,12,49,20.90
2017,05,21,12,50,20.90
2017,05,21,12,51,20.90
2017,05,21,12,52,20.90
2017,05,21,12,53,21.00
2017,05,21,12,54,21.00
2017,05,21,12,55,21.10
2017,05,21,12,56,21.10
2017,05,21,12,57,21.20
2017,05,21,12,58,21.20
2017,05,21,12,59,21.30
2017,05,21,13,00,21.30
2017,05,21,13,01,21.40
2017,05,21,13,02,21.40
2017,05,21,13,03,21.40
2017,05,21,13,04,21.40
2017,05,21,13,05,21.40
2017,05,21,13,06,21.40
2017,05,21,13,07,21.30
2017,05,21,13,08,21.30
2017,05,21,13,09,21.30
2017,05,21,13,10,21.30
2017,05,21,13,11,21.40
2017,05,21,13,12,21.40
2017,05,21,13,13,21.50
2017,05,21,13,14,21.50
2017,05,21,13,15,21.60
2017,05,21,13,16,21.60
2017,05,21,13,17,21.70
2017,05,21,13,18,21.70
2017,05,21,13,19,21.80
2017,05,21,13,20,21.80
2017,05,21,13,21,21.90
2017,05,21,13,22,22.00
2017,05,21,13,23,22.00
2017,05,21,13,24,22.00
2017,05,21,13,25,22.00
2017,05,21,13,26,22.10
2017,05,21,13,27,22.10
2017,05,21,13,28,22.10
2017,05,21,13,29,22.10
2017,05,21,13,30,22.10
2017,05,21,13,31,22.10
2017,05,21,13,32,22.10
2017,05,21,13,33,22.10
2017,05,21,13,34,22.10
2017,05,21,13,35,22.10
2017,05,21,13,36,22.10
2017,05,21,13,37,22.10
2017,05,21,13,38,22.10
2017,05,21,13,39,22.10
2017,05,21,13,40,22.10
2017,05,21,13,41,22.10
2017,05,21,13,42,22.00
2017,05,21,13,43,22.00
2017,05,21,13,44,21.90
2017,05,21,13,45,21.90
2017,05,21,13,46,21.90
2017,05,21,13,47,21.90
2017,05,21,13,48,21.90
2017,05,21,13,49,21.90
2017,05,21,13,50,21.80
2017,05,21,13,51,21.80
2017,05,21,13,52,21.90
2017,05,21,13,53,21.90
2017,05,21,13,54,22.00
2017,05,21,13,55,22.00
2017,05,21,13,56,22.10
2017,05,21,13,57,22.10
2017,05,21,13,58,22.20
2017,05,21,13,59,22.20
2017,05,21,14,00,22.20
2017,05,21,14,01,22.30
2017,05,21,14,02,22.30
2017,05,21,14,03,22.40
2017,05,21,14,04,22.50
2017,05,21,14,05,22.60
2017,05,21,14,06,22.60
2017,05,21,14,07,22.70
2017,05,21,14,08,22.70
2017,05,21,14,09,22.70
2017,05,21,14,10,22.80
2017,05,21,14,11,22.80
2017,05,21,14,12,22.80
2017,05,21,14,13,22.80
2017,05,21,14,14,22.80
2017,05,21,14,15,22.80
2017,05,21,14,16,22.80
2017,05,21,14,17,22.70
2017,05,21,14,18,22.70
2017,05,21,14,19,22.70
2017,05,21,14,20,22.70
2017,05,21,14,21,22.70
2017,05,21,14,22,22.70
2017,05,21,14,23,22.70
2017,05,21,14,24,22.70
2017,05,21,14,25,22.80
2017,05,21,14,26,22.80
2017,05,21,14,27,22.80
2017,05,21,14,28,22.80
2017,05,21,14,29,22.80
2017,05,21,14,30,22.80
2017,05,21,14,31,22.80
2017,05,21,14,32,22.80
2017,05,21,14,33,22.80
2017,05,21,14,34,22.80
2017,05,21,14,35,22.70
2017,05,21,14,36,22.70
2017,05,21,14,37,22.70
2017,05,21,14,38,22.70
2017,05,21,14,39,22.70
2017,05,21,14,40,22.70
2017,05,21,14,41,22.70
2017,05,21,14,42,22.70
2017,05,21,14,43,22.70
2017,05,21,14,44,22.80
2017,05,21,14,45,22.80
2017,05,21,14,46,22.80
2017,05,21,14,47,22.80
2017,05,21,14,48,22.80
2017,05,21,14,49,22.80
2017,05,21,14,50,22.80
2017,05,21,14,51,22.80
2017,05,21,14,52,22.80
2017,05,21,14,53,22.80
2017,05,21,14,54,22.80
2017,05,21,14,55,22.90
2017,05,21,14,56,22.90
2017,05,21,14,57,22.90
2017,05,21,14,58,23.00
2017,05,21,14,59,23.00
2017,05,21,15,00,23.10
2017,05,21,15,01,23.10
2017,05,21,15,02,23.10
2017,05,21,15,03,23.10
2017,05,21,15,04,23.10
2017,05,21,15,05,23.10
2017,05,21,15,06,23.10
2017,05,21,15,07,23.10
2017,05,21,15,08,23.10
2017,05,21,15,09,23.10
2017,05,21,15,10,23.10
2017,05,21,15,11,23.10
2017,05,21,15,12,23.10
2017,05,21,15,13,23.10
2017,05,21,15,14,23.20
2017,05,21,15,15,23.20
2017,05,21,15,16,23.20
2017,05,21,15,17,23.10
2017,05,21,15,18,23.10
2017,05,21,15,19,23.10
2017,05,21,15,20,23.10
2017,05,21,15,21,23.10
2017,05,21,15,22,23.20
2017,05,21,15,23,23.20
2017,05,21,15,24,23.30
2017,05,21,15,25,23.40
2017,05,21,15,26,23.40
2017,05,21,15,27,23.40
2017,05,21,15,28,23.40
2017,05,21,15,29,23.40
2017,05,21,15,30,23.40
2017,05,21,15,31,23.50
2017,05,21,15,32,23.40
2017,05,21,15,33,23.50
2017,05,21,15,34,23.50
2017,05,21,15,35,23.50
2017,05,21,15,36,23.60
2017,05,21,15,37,23.60
2017,05,21,15,38,23.70
2017,05,21,15,39,23.70
2017,05,21,15,40,23.70
2017,05,21,15,41,23.80
2017,05,21,15,42,23.80
2017,05,21,15,43,23.80
2017,05,21,15,44,23.80
2017,05,21,15,45,23.80
2017,05,21,15,46,23.80
2017,05,21,15,47,23.90
2017,05,21,15,48,23.90
2017,05,21,15,49,24.00
2017,05,21,15,50,24.10
2017,05,21,15,51,24.10
2017,05,21,15,52,24.10
2017,05,21,15,53,24.20
2017,05,21,15,54,24.20
2017,05,21,15,55,24.30
2017,05,21,15,56,24.30
2017,05,21,15,57,24.30
2017,05,21,15,58,24.20
2017,05,21,15,59,24.20
2017,05,21,16,00,24.20
2017,05,21,16,01,24.20
2017,05,21,16,02,24.20
2017,05,21,16,03,24.20
2017,05,21,16,04,24.20
2017,05,21,16,05,24.20
2017,05,21,16,06,24.10
2017,05,21,16,07,24.10
2017,05,21,16,08,24.10
2017,05,21,16,09,24.10
2017,05,21,16,10,24.10
2017,05,21,16,11,24.10
2017,05,21,16,12,24.10
2017,05,21,16,13,24.00
2017,05,21,16,14,24.00
2017,05,21,16,15,24.00
2017,05,21,16,16,24.00
2017,05,21,16,17,23.90
2017,05,21,16,18,23.90
2017,05,21,16,19,23.90
2017,05,21,16,20,23.90
2017,05,21,16,21,23.90
2017,05,21,16,22,23.90
2017,05,21,16,23,23.90
2017,05,21,16,24,23.80
2017,05,21,16,25,23.80
2017,05,21,16,26,23.80
2017,05,21,16,27,23.70
2017,05,21,16,28,23.70
2017,05,21,16,29,23.70
2017,05,21,16,30,23.70
2017,05,21,16,31,23.60
2017,05,21,16,32,23.60
2017,05,21,16,33,23.50
2017,05,21,16,34,23.50
2017,05,21,16,35,23.50
2017,05,21,16,36,23.40
2017,05,21,16,37,23.40
2017,05,21,16,38,23.40
2017,05,21,16,39,23.40
2017,05,21,16,40,23.30
2017,05,21,16,41,23.30
2017,05,21,16,42,23.30
2017,05,21,16,43,23.20
2017,05,21,16,44,23.20
2017,05,21,16,45,23.20
2017,05,21,16,46,23.20
2017,05,21,16,47,23.20
2017,05,21,16,48,23.20
2017,05,21,16,49,23.20
2017,05,21,16,50,23.20
2017,05,21,16,51,23.20
2017,05,21,16,52,23.20
2017,05,21,16,53,23.20
2017,05,21,16,54,23.20
2017,05,21,16,55,23.20
2017,05,21,16,56,23.20
2017,05,21,16,57,23.20
2017,05,21,16,58,23.20
2017,05,21,16,59,23.20
2017,05,21,17,00,23.20
2017,05,21,17,01,23.30
2017,05,21,17,02,23.30
2017,05,21,17,03,23.30
2017,05,21,17,04,23.30
2017,05,21,17,05,23.30
2017,05,21,17,06,23.30
2017,05,21,17,07,23.40
2017,05,21,17,08,23.40
2017,05,21,17,09,23.40
2017,05,21,17,10,23.30
2017,05,21,17,11,23.30
2017,05,21,17,12,23.30
2017,05,21,17,13,23.30
2017,05,21,17,14,23.30
2017,05,21,17,15,23.30
2017,05,21,17,16,23.30
2017,05,21,17,17,23.30
2017,05,21,17,18,23.30
2017,05,21,17,19,23.30